Dewpoint
25 26 25 27 29 28 25 25 24 26 29 35 46 50 53 51 53 55 55 57 60 63 64 63 62 62 62 60 65 66 66 66 66 65 65 64 64 63 62 62 61 59 58 58
24 31 29 28 28 31 34 41 34 38 40 49 50 51 53 53 56 57 59 60 62 63 64 64 62 60 61 60 63 65 66 66 67 65 65 65 64 62 62 61 59 59 57 56
17 34 28 19 32 37 45 49 47 32 40 49 48 51 53 54 55 55 58 60 63 56 65 65 65 64 60 60 65 67 67 67 67 66 65 64 64 63 62 60 59 58 55 53
31 29 17 27 48 45 50 52 51 48 49 51 50 50 52 55 58 58 56 60 62 58 66 66 66 66 66 65 65 65 65 65 66 66 65 64 64 63 63 61 59 57 54 52
29 30 29 41 47 39 40 47 53 50 51 54 54 53 51 56 58 57 58 61 64 65 65 67 66 65 64 64 63 62 61 61 61 63 64 65 64 63 63 61 59 57 54 51
31 26 25 30 40 50 41 34 54 54 51 52 53 43 50 58 64 64 64 64 63 65 66 65 64 65 65 64 63 60 59 59 61 60 62 64 65 64 63 61 58 55 52 51
33 28 30 35 44 44 27 28 53 54 52 53 50 51 54 61 62 63 63 63 63 63 62 62 61 62 62 60 59 59 57 58 59 59 60 64 64 63 60 58 54 51 49 48
31 28 23 55 55 38 41 53 53 53 52 53 55 61 63 62 62 62 61 61 61 60 59 59 58 59 59 56 56 57 56 56 57 57 57 60 63 61 59 56 53 51 50 51
30 31 52 55 55 56 54 55 55 54 54 56 58 59 61 61 60 61 61 60 61 59 57 57 59 58 56 55 55 56 55 54 55 55 55 56 59 59 57 55 54 52 51 51
48 51 52 54 57 60 61 60 62 59 58 59 57 60 60 60 59 59 59 59 59 59 58 57 57 57 55 56 56 57 56 55 52 51 51 53 54 55 55 54 53 52 51 51
50 52 53 54 55 57 59 59 62 61 60 59 60 59 60 59 59 59 59 58 58 58 57 57 57 56 56 57 55 54 54 51 50 50 50 49 47 50 51 50 52 52 52 51
46 51 51 52 55 57 59 61 61 60 60 61 60 59 59 59 58 60 59 57 57 57 57 57 58 57 55 54 53 52 49 48 49 49 49 49 47 45 44 44 43 45 46 47
48 51 54 56 58 58 60 61 61 61 60 59 59 59 58 58 58 59 59 58 57 57 57 57 57 57 56 53 51 50 48 47 47 46 46 45 45 45 45 44 41 39 40 43
50 48 51 53 53 58 60 62 60 60 59 59 58 58 58 58 57 58 58 58 57 57 57 57 56 56 57 54 52 50 49 49 47 46 46 45 44 44 43 43 43 42 40 39
44 44 48 48 51 53 59 60 58 58 58 58 58 57 57 57 57 58 58 58 57 57 57 56 56 56 57 57 53 51 50 50 48 48 47 46 45 44 43 42 41 41 39 39
44 44 43 43 45 48 52 56 55 56 57 57 57 57 58 57 57 57 57 57 55 56 56 56 56 56 57 55 53 52 51 52 50 49 48 47 46 45 44 43 41 40 39 37
40 40 42 44 45 44 46 48 48 51 57 57 57 57 57 57 56 55 56 57 56 56 56 55 55 55 56 55 54 51 51 50 50 47 49 49 49 48 46 46 43 41 39 38
46 46 46 46 46 47 48 49 49 49 52 57 58 57 57 57 56 55 55 56 56 55 55 55 55 55 55 50 45 38 38 39 40 39 41 43 46 47 46 46 46 43 41 40
45 45 45 46 48 48 48 50 51 51 51 55 56 56 57 57 55 55 56 55 55 55 55 54 55 50 46 47 44 37 38 39 40 40 41 41 40 40 41 42 41 41 42 41
47 47 46 46 46 48 49 51 53 52 52 54 55 55 55 55 55 55 55 54 55 56 54 51 47 46 46 48 50 43 43 42 43 42 44 44 44 43 41 39 42 40 37 37
46 47 48 48 47 47 47 51 52 52 53 53 54 54 54 54 55 55 53 54 55 54 51 51 46 48 45 47 48 46 46 45 44 42 41 41 40 40 39 42 42 42 42 43
47 48 48 49 48 48 48 49 51 53 52 52 53 54 54 53 55 54 54 55 54 50 49 47 48 49 47 48 44 43 43 44 44 44 44 43 42 42 42 43 43 42 42 41
47 47 48 48 48 48 48 48 49 51 51 52 53 53 54 55 56 55 54 55 55 52 53 51 50 49 49 44 44 45 45 45 44 43 41 41 43 43 43 42 42 41 40 39
48 50 51 51 51 50 48 49 49 49 53 54 54 52 53 54 53 51 53 52 51 49 50 48 47 47 46 45 45 46 46 45 43 42 42 41 42 42 41 41 40 39 37 36
51 51 48 49 48 48 51 51 51 50 50 50 52 51 51 51 50 48 52 51 48 47 47 46 46 46 45 45 46 46 46 46 45 43 42 42 41 40 40 39 38 37 35 34
52 50 53 54 54 53 52 51 50 50 50 50 50 51 50 51 50 51 50 49 49 47 48 49 49 49 49 48 47 46 47 45 42 41 41 41 40 39 38 37 36 34 33 32
52 50 52 52 52 52 52 51 51 50 51 51 50 51 51 50 50 49 49 50 50 50 50 51 50 49 46 45 43 42 42 42 40 41 40 40 39 38 37 36 34 33 31 30
Lifted_Index
0 0 1 0 0 1 0 0 0 0 1 0 -0 -1 -1 -1 -2 -2 -1 -2 -3 -5 -6 -6 -6 -5 -4 -3 -3 -4 -5 -5 -5 -4 -4 -3 -3 -2 -0 1 2 3 4 4
0 0 0 0 0 0 0 -0 0 0 1 0 -0 -0 -1 -1 -1 -1 -2 -2 -3 -4 -5 -5 -5 -5 -4 -4 -4 -5 -6 -5 -5 -4 -4 -3 -3 -2 -1 1 2 3 4 4
0 0 0 0 -0 -0 -0 -1 -0 0 1 0 0 -0 -0 -1 -1 -1 -2 -2 -3 -3 -4 -4 -4 -4 -4 -4 -5 -6 -6 -6 -5 -4 -4 -4 -3 -2 -1 0 1 2 3 4
0 0 0 -0 -1 -1 -1 -1 -0 0 0 0 0 -0 -1 -1 -1 -1 -2 -3 -3 -4 -4 -4 -3 -3 -3 -4 -5 -5 -6 -5 -5 -5 -4 -4 -3 -2 -1 -0 1 2 3 3
0 0 0 -0 -0 -0 -0 -1 -0 -0 -0 -0 -0 -0 -1 -2 -2 -2 -2 -4 -5 -5 -5 -5 -4 -4 -4 -4 -4 -4 -4 -5 -5 -5 -4 -4 -3 -3 -2 -1 0 1 2 3
0 0 1 1 0 -0 0 0 -1 -1 -1 -0 -0 -0 -1 -2 -4 -4 -4 -5 -5 -6 -5 -5 -5 -5 -4 -3 -3 -2 -3 -3 -4 -4 -4 -4 -3 -3 -2 -1 -0 1 2 2
1 1 1 0 -0 -0 1 0 -1 -1 -1 -0 -0 -1 -2 -3 -5 -5 -6 -6 -6 -6 -6 -5 -5 -4 -3 -2 -1 -1 -2 -3 -3 -3 -2 -3 -3 -3 -2 -1 -0 1 2 2
2 1 0 -2 -2 -1 -1 -1 -2 -2 -1 -0 -1 -2 -3 -4 -5 -6 -6 -6 -6 -6 -5 -5 -4 -4 -3 -2 -1 -1 -2 -3 -2 -2 -1 -2 -2 -2 -2 -1 0 1 1 2
2 1 -1 -3 -3 -3 -3 -3 -3 -2 -1 -1 -1 -2 -4 -5 -6 -6 -6 -6 -6 -5 -5 -4 -4 -3 -3 -3 -2 -2 -2 -2 -1 -0 -0 -1 -1 -1 -1 -0 0 1 1 2
-0 -1 -2 -3 -4 -4 -4 -4 -4 -3 -2 -2 -2 -2 -4 -5 -5 -5 -5 -5 -4 -4 -3 -3 -3 -3 -2 -3 -2 -2 -2 -1 1 1 1 0 -0 -0 0 0 1 1 2 2
-2 -2 -2 -3 -3 -3 -4 -4 -4 -4 -3 -2 -2 -3 -3 -4 -5 -4 -4 -3 -3 -3 -2 -2 -2 -2 -1 -1 -1 -1 0 1 2 2 2 1 1 1 1 1 2 2 3 3
-2 -2 -2 -2 -3 -3 -4 -4 -4 -4 -3 -3 -3 -3 -3 -4 -4 -3 -3 -2 -2 -2 -2 -2 -2 -1 -0 1 1 2 2 3 3 3 3 3 3 3 3 3 3 3 4 4
-2 -2 -2 -2 -3 -4 -5 -5 -4 -4 -3 -3 -3 -3 -3 -3 -3 -3 -2 -2 -2 -1 -1 -1 -1 -0 1 2 3 3 4 4 4 5 5 5 6 6 6 5 5 6 6 6
-1 -1 -1 -1 -2 -3 -4 -4 -4 -3 -3 -3 -3 -3 -3 -2 -2 -2 -1 -1 -1 -1 -0 -0 -0 1 2 4 4 5 5 6 6 7 8 8 9 9 9 9 8 8 8 8
0 0 -0 -0 -1 -2 -3 -3 -3 -3 -3 -2 -2 -2 -2 -2 -1 -1 -1 -0 0 -0 -0 0 1 2 3 4 5 5 6 7 8 8 9 9 10 10 10 10 10 10 10 10
1 1 1 1 0 -0 -1 -1 -1 -2 -2 -2 -2 -2 -1 -1 -1 -0 0 1 1 1 1 1 2 3 4 4 5 6 6 7 7 7 8 8 9 9 9 9 9 9 9 9
2 2 2 2 2 2 1 1 1 -0 -1 -1 -1 -1 -1 -1 -1 -0 0 1 1 2 2 3 3 4 4 5 5 6 6 6 6 7 7 7 7 7 7 7 7 8 8 8
1 2 2 2 3 3 3 2 2 1 1 0 -0 -1 -1 -1 -1 -1 0 1 1 2 3 4 4 4 4 5 6 8 8 8 7 7 7 6 6 6 6 6 6 6 7 7
1 2 2 3 3 3 3 2 2 2 1 1 0 -0 -1 -1 -1 -0 -0 0 1 2 3 3 4 4 5 6 8 9 9 8 8 7 7 6 6 6 5 5 5 5 5 6
1 1 2 2 3 3 3 3 2 1 1 1 0 -0 -0 -0 -0 -0 -0 0 1 2 2 3 3 5 6 7 8 8 8 7 7 6 6 6 5 5 5 4 4 4 4 5
2 2 2 2 3 3 3 3 3 2 1 1 0 -0 -1 -1 -1 -0 -0 0 1 1 2 2 4 6 7 6 6 6 6 6 6 6 5 5 4 4 4 4 4 4 5 5
3 3 3 3 3 3 4 4 3 2 2 1 1 -0 -1 -1 -1 -1 -1 -0 0 1 2 2 4 5 6 6 5 5 5 5 5 5 4 4 4 4 4 4 4 5 5 5
3 3 3 3 3 3 3 4 3 3 2 1 1 -0 -1 -1 -1 -1 -1 -0 -0 0 2 3 4 5 5 5 5 4 4 4 4 4 4 4 4 4 4 4 4 5 5 6
2 3 3 3 3 3 3 3 3 3 2 2 1 -0 -1 -1 -1 -1 -1 -0 -0 0 2 3 4 5 5 5 5 4 4 4 4 4 4 4 4 4 4 5 5 5 6 6
2 2 2 3 3 3 2 2 3 3 3 2 1 0 -1 -1 -1 -1 -1 -0 -0 1 3 4 4 4 4 5 4 4 4 4 4 4 4 4 4 4 5 6 6 6 6 6
1 1 2 2 2 2 2 2 2 3 2 2 1 0 -1 -1 -1 -1 -1 0 1 3 3 4 4 4 4 4 4 4 4 4 4 4 5 5 6 6 6 6 6 7 7 7
1 1 1 1 2 2 2 2 2 2 2 2 1 1 -0 -1 -1 -1 -0 1 3 4 4 4 4 4 4 4 3 3 3 4 5 5 6 6 7 7 7 7 7 7 8 8